FENGYUN 1C DEB

Satellite information

Favourite Embed

Satellite Type and Status

DEBRISIN ORBIT

Key statistics

Satellite FENGYUN 1C DEB at a glance.

Uptime

9660

Days in orbit

Revolutions

≈ 14.3

Per day

Orbit

SSO

Sun Synchronous Orbit

Inclination

98.9

Latest

Satellite identification and parameters

Extended collection of information and parameters for FENGYUN 1C DEB.

Object identification

Identified? True

Debris? True

Object name: FENGYUN 1C DEB

International designator: 1999-025AZW

Object number (NORAD): 30932

Object ID (CCSDS): 30932

Country: PEOPLES REPUBLIC OF CHINA (PRC)

Current information (Y/N): Y

RCS size: SMALL

Orbital parameters

Period: 101.001 minutes

Inclination: 98.9029 deg

SMA: 7184.198 km

Apoapsis: 849.372 km

Periapsis: 762.753 km

RAAN: 224.059 deg

Eccentricy: 0.00602845

Argument of periapsis: 86.958 deg

Mean anomaly: 273.8495 deg

Mean motion: 14.25723604 rev/day

Mean motion (dot): 0.0001121 rev/day2

B* drag term: 0.0046453502 1/REarth

Two-line elements (TLE)

Creation date: Oct. 19, 2025, 10:30 a.m.

Reference frame: TEME

Reference center: EARTH

Epoch: Oct. 19, 2025, 1:49 a.m. UTC

TLE line 0: 0 FENGYUN 1C DEB

TLE line 1: 1 30932U 99025AZW 25292.07604425 .00011210 00000-0 46454-2 0 9990

TLE line 2: 2 30932 98.9029 224.0590 0060284 86.9580 273.8495 14.25723604956152

Live tracking on map

Real-time ground track for satellite FENGYUN 1C DEB.

In-orbit conjunctions

A list of the most updated potential collisions computed for object FENGYUN 1C DEB.

Target Orbit TCA Probability of collision Miss distance Type
COSMOS 2251 DEB LEO 2024-09-28 01:31:02 0.0001469368 277.0 (m) DEBRIS
COSMOS 1375 DEB LEO 2024-09-26 15:52:30 0.0004379409 973.0 (m) DEBRIS
CZ-6A DEB SSO 2024-09-26 15:05:48 0.0002056786 878.0 (m) DEBRIS

Associated space launch

Chinese polar orbiting meteorological satellite

FENGYUN 1C DEB was lifted into orbit during the mission ‘Long March 4B | Feng Yun 1C’, on board a Long March 4B space rocket.

The launch took place on May 10, 1999, 1:33 a.m. from Launch Complex 7.

For more information about the launch, click the button.

Launch to space Long March 4B | Feng Yun 1C
Long March 4B | Feng Yun 1C

Agency: N/A

Status: Launch Successful

Launch date: May 10, 1999, 1:33 a.m. UTC

Rocket: Long March 4B

Launch pad: Launch Complex 7

Location: Taiyuan Satellite Launch Center, People's Republic of China

...

Latest news about this satellite

There are no fresh news available about this satellite. Check back as we update our databases every day.


Newsletter sign-up

Weekly statistics, charts and insights to help you stay on top of the space industry.